EVY13 YSNW-YSCB

Flight info

Callsign EVY13
Flight time 0h 20m
Altitude 14000
Route DCT NWA DCT LEECE DCT
Aircraft B38M/M-SADE2E3FGHIJ1J3J4J7M3P2RWXYZ/LB1D1

Departure

Time 2026-04-24 12:53
Airport Naval Air Station Nowra - HMAS Albatross (YSNW)

Arrival

Time 2026-04-24 13:13
Airport Canberra Airport (YSCB)
Time Latitude Longitude Altitude Speed Heading
2026-04-24 12:40 -34.93918 150.55066 384 ft 0 kts 225°
2026-04-24 12:50 -34.93932 150.55047 384 ft 6 kts 236°
2026-04-24 12:50 -34.93935 150.54990 384 ft 4 kts 296°
2026-04-24 12:50 -34.93920 150.54987 384 ft 3 kts 22°
2026-04-24 12:51 -34.93881 150.55023 386 ft 13 kts 37°
2026-04-24 12:51 -34.93793 150.55129 386 ft 21 kts 46°
2026-04-24 12:51 -34.93687 150.55253 387 ft 14 kts 35°
2026-04-24 12:51 -34.93651 150.55271 387 ft 6 kts 11°
2026-04-24 12:52 -34.93602 150.55239 388 ft 14 kts 312°
2026-04-24 12:52 -34.93595 150.55173 388 ft 7 kts 225°
2026-04-24 12:52 -34.93745 150.54995 387 ft 73 kts 224°
2026-04-24 12:52 -34.94328 150.54305 405 ft 152 kts 225°
2026-04-24 12:53 -34.95135 150.53368 1198 ft 167 kts 224°
2026-04-24 12:53 -34.95957 150.52210 1913 ft 191 kts 243°
2026-04-24 12:53 -34.96417 150.50620 2826 ft 213 kts 257°
2026-04-24 12:53 -34.96648 150.48729 3736 ft 237 kts 267°
2026-04-24 12:54 -34.96776 150.46650 4783 ft 255 kts 268°
2026-04-24 12:54 -34.96911 150.44423 5830 ft 272 kts 267°
2026-04-24 12:54 -34.97154 150.42114 7070 ft 278 kts 258°
2026-04-24 12:54 -34.97613 150.39784 8223 ft 286 kts 257°
2026-04-24 12:55 -34.98068 150.37406 9456 ft 290 kts 257°
2026-04-24 12:55 -34.98518 150.34982 10592 ft 299 kts 258°
2026-04-24 12:55 -34.98980 150.32443 11443 ft 313 kts 258°
2026-04-24 12:55 -34.99455 150.29804 12439 ft 322 kts 258°
2026-04-24 12:56 -34.99935 150.27121 13603 ft 326 kts 258°
2026-04-24 12:56 -35.00422 150.24378 14293 ft 334 kts 257°
2026-04-24 12:56 -35.00914 150.21602 14465 ft 339 kts 257°
2026-04-24 12:56 -35.01425 150.18717 14473 ft 356 kts 257°
2026-04-24 12:57 -35.01959 150.15693 14473 ft 373 kts 257°
2026-04-24 12:57 -35.02511 150.12564 14482 ft 381 kts 258°
2026-04-24 12:57 -35.03072 150.09376 14491 ft 385 kts 258°
2026-04-24 12:57 -35.03635 150.06176 14504 ft 386 kts 258°
2026-04-24 12:58 -35.04196 150.02982 14521 ft 386 kts 258°
2026-04-24 12:58 -35.04751 149.99819 14517 ft 385 kts 258°
2026-04-24 12:58 -35.05527 149.96700 14513 ft 385 kts 244°
2026-04-24 12:58 -35.07080 149.94004 14525 ft 384 kts 227°
2026-04-24 12:59 -35.08873 149.91646 14516 ft 384 kts 227°
2026-04-24 12:59 -35.10698 149.89258 14519 ft 384 kts 226°
2026-04-24 12:59 -35.12529 149.86881 14518 ft 384 kts 226°
2026-04-24 12:59 -35.14366 149.84502 14519 ft 384 kts 226°
2026-04-24 13:00 -35.16186 149.82149 14413 ft 374 kts 226°
2026-04-24 13:00 -35.17944 149.79877 14155 ft 364 kts 226°
2026-04-24 13:00 -35.19676 149.77635 13662 ft 360 kts 226°
2026-04-24 13:00 -35.21387 149.75420 13198 ft 357 kts 226°
2026-04-24 13:01 -35.23063 149.73250 12779 ft 352 kts 226°
2026-04-24 13:01 -35.24738 149.71079 12359 ft 348 kts 226°
2026-04-24 13:01 -35.26395 149.68930 11945 ft 344 kts 226°
2026-04-24 13:01 -35.28035 149.66801 11530 ft 341 kts 226°
2026-04-24 13:02 -35.29655 149.64698 11132 ft 338 kts 226°
2026-04-24 13:02 -35.31260 149.62613 10731 ft 335 kts 226°
2026-04-24 13:02 -35.32819 149.60587 10543 ft 326 kts 226°
2026-04-24 13:02 -35.34351 149.58592 10351 ft 317 kts 226°
2026-04-24 13:03 -35.35847 149.56644 10181 ft 308 kts 226°
2026-04-24 13:03 -35.37292 149.54764 10014 ft 299 kts 226°
2026-04-24 13:03 -35.38714 149.52910 9686 ft 297 kts 226°
2026-04-24 13:03 -35.40125 149.51072 9362 ft 295 kts 226°
2026-04-24 13:04 -35.41524 149.49245 9031 ft 293 kts 227°
2026-04-24 13:04 -35.42897 149.47452 8720 ft 290 kts 227°
2026-04-24 13:04 -35.44278 149.45650 8411 ft 288 kts 227°
2026-04-24 13:04 -35.45645 149.43864 8093 ft 286 kts 227°
2026-04-24 13:05 -35.47002 149.42090 7766 ft 285 kts 227°
2026-04-24 13:05 -35.47918 149.40891 7536 ft 285 kts 227°
2026-04-24 13:05 -35.49253 149.39144 7223 ft 283 kts 227°
2026-04-24 13:05 -35.50595 149.37387 7008 ft 278 kts 227°
2026-04-24 13:06 -35.51901 149.35676 6859 ft 270 kts 227°
2026-04-24 13:06 -35.53170 149.34013 6717 ft 262 kts 227°
2026-04-24 13:06 -35.54390 149.31567 6497 ft 250 kts 259°
2026-04-24 13:06 -35.54460 149.30176 6399 ft 243 kts 278°
2026-04-24 13:07 -35.54007 149.28223 6278 ft 233 kts 293°
2026-04-24 13:07 -35.53421 149.26408 6164 ft 225 kts 294°
2026-04-24 13:07 -35.52835 149.24651 6064 ft 217 kts 294°
2026-04-24 13:07 -35.52065 149.23131 5856 ft 211 kts 319°
2026-04-24 13:08 -35.50896 149.22062 5622 ft 209 kts 326°
2026-04-24 13:08 -35.49705 149.21035 5393 ft 209 kts 326°
2026-04-24 13:08 -35.48503 149.20063 5253 ft 200 kts 335°
2026-04-24 13:09 -35.45887 149.19406 4776 ft 191 kts 352°
2026-04-24 13:09 -35.44608 149.19182 4472 ft 176 kts 352°
2026-04-24 13:09 -35.43456 149.18980 4217 ft 158 kts 352°
2026-04-24 13:09 -35.42424 149.18803 3976 ft 142 kts 355°
2026-04-24 13:10 -35.41466 149.18758 3774 ft 136 kts 359°
2026-04-24 13:10 -35.40523 149.18712 3598 ft 135 kts 358°
2026-04-24 13:10 -35.39581 149.18671 3489 ft 136 kts
2026-04-24 13:10 -35.38650 149.18792 3287 ft 136 kts 12°
2026-04-24 13:11 -35.37740 149.19119 3074 ft 136 kts 18°
2026-04-24 13:11 -35.36809 149.19382 2848 ft 138 kts
2026-04-24 13:11 -35.35848 149.19438 2646 ft 139 kts
2026-04-24 13:11 -35.34876 149.19440 2462 ft 139 kts
2026-04-24 13:12 -35.33918 149.19442 2300 ft 136 kts
2026-04-24 13:12 -35.32963 149.19446 2140 ft 137 kts
2026-04-24 13:12 -35.32013 149.19447 1989 ft 135 kts
2026-04-24 13:12 -35.31098 149.19447 1883 ft 124 kts
2026-04-24 13:13 -35.30456 149.19446 1882 ft 55 kts 360°
2026-04-24 13:13 -35.30054 149.19445 1882 ft 59 kts 360°
2026-04-24 13:13 -35.29714 149.19443 1880 ft 33 kts 360°
2026-04-24 13:13 -35.29599 149.19475 1882 ft 7 kts 60°
2026-04-24 13:14 -35.29603 149.19565 1879 ft 16 kts 115°
2026-04-24 13:14 -35.29701 149.19595 1882 ft 20 kts 182°
2026-04-24 13:14 -35.29860 149.19593 1876 ft 25 kts 179°
2026-04-24 13:14 -35.30047 149.19593 1882 ft 28 kts 180°
2026-04-24 13:15 -35.30220 149.19594 1882 ft 16 kts 165°
2026-04-24 13:15 -35.30299 149.19704 1882 ft 19 kts 123°
2026-04-24 13:15 -35.30376 149.19829 1882 ft 19 kts 127°
2026-04-24 13:15 -35.30368 149.19906 1878 ft 9 kts 45°
2026-04-24 13:16 -35.30361 149.19930 1882 ft 0 kts 111°
2026-04-24 13:16 -35.30377 149.19957 1877 ft 5 kts 126°
2026-04-24 13:16 -35.30378 149.19959 1877 ft 0 kts 126°